Total_Precipitation_Accumulation
0.60 0.67 0.79 0.97 1.18 1.23 1.27 1.40 1.45 1.62 1.85 2.07 2.24 2.27 2.31 2.21 2.16 2.09 2.01 1.95 1.98 1.99 2.03 1.99 2.10 2.16 2.09 1.98 1.90 1.81 1.74 1.60 1.46 1.53 1.60 1.48 1.22 1.03 0.94 0.92 0.90 0.80 0.69
0.62 0.70 0.80 0.94 1.18 1.27 1.27 1.40 1.50 1.60 1.67 1.80 1.97 2.07 2.21 2.26 2.21 2.12 2.13 2.01 1.93 1.91 1.98 1.99 1.94 1.96 1.97 1.95 1.88 1.83 1.79 1.74 1.61 1.61 1.71 1.72 1.63 1.29 0.97 0.88 0.87 0.87 0.84
0.67 0.71 0.78 0.91 1.16 1.32 1.33 1.37 1.46 1.59 1.66 1.79 2.01 2.15 2.36 2.44 2.47 2.27 2.13 2.07 2.03 1.93 1.89 1.98 1.99 1.92 1.89 1.86 1.82 1.75 1.68 1.69 1.59 1.44 1.62 1.70 1.49 1.21 1.01 0.89 0.80 0.78 0.85
0.67 0.73 0.75 0.85 1.04 1.23 1.36 1.41 1.52 1.62 1.66 1.84 2.04 2.06 2.22 2.27 2.22 2.10 2.01 1.95 1.97 1.96 1.90 1.89 1.95 1.98 1.88 1.77 1.73 1.73 1.69 1.72 1.74 1.55 1.36 1.35 1.26 1.24 1.09 0.95 0.90 0.84 0.82
0.64 0.72 0.75 0.75 0.88 1.05 1.24 1.37 1.56 1.71 1.73 1.77 1.97 2.03 1.99 2.06 2.15 2.20 2.14 2.04 1.98 1.93 1.89 1.89 1.90 1.90 1.87 1.75 1.69 1.71 1.73 1.74 1.73 1.66 1.46 1.30 1.12 1.06 1.15 0.99 0.90 0.98 0.95
0.70 0.72 0.71 0.70 0.82 0.98 1.15 1.30 1.47 1.63 1.73 1.74 1.85 2.01 1.98 1.95 2.05 2.21 2.28 2.21 2.09 2.00 1.87 1.78 1.81 1.79 1.71 1.66 1.62 1.61 1.60 1.63 1.66 1.62 1.53 1.46 1.38 1.18 1.16 1.10 0.90 0.90 0.93
0.72 0.77 0.67 0.70 0.76 0.87 1.04 1.20 1.40 1.49 1.59 1.66 1.72 1.79 1.93 1.91 1.89 1.92 2.02 2.19 2.16 2.01 1.91 1.83 1.74 1.71 1.63 1.56 1.54 1.57 1.55 1.50 1.53 1.56 1.49 1.40 1.30 1.22 1.26 1.35 1.23 1.07 0.95
0.66 0.71 0.68 0.69 0.73 0.77 0.89 1.05 1.19 1.38 1.54 1.64 1.67 1.69 1.77 1.89 1.83 1.82 1.77 1.89 1.98 1.86 1.77 1.82 1.74 1.67 1.64 1.62 1.59 1.56 1.54 1.54 1.47 1.40 1.39 1.41 1.30 1.27 1.38 1.50 1.60 1.54 1.18
0.71 0.68 0.68 0.72 0.70 0.76 0.82 0.96 1.06 1.22 1.44 1.62 1.68 1.69 1.72 1.78 1.79 1.75 1.75 1.76 1.78 1.81 1.80 1.79 1.77 1.70 1.72 1.76 1.76 1.71 1.58 1.54 1.52 1.46 1.38 1.38 1.35 1.32 1.32 1.38 1.55 1.85 1.69
0.79 0.75 0.71 0.77 0.75 0.76 0.80 0.86 1.02 1.13 1.28 1.50 1.71 1.73 1.68 1.65 1.73 1.80 1.83 1.79 1.75 1.77 1.79 1.80 1.81 1.75 1.69 1.75 1.81 1.76 1.66 1.65 1.59 1.57 1.55 1.42 1.34 1.37 1.41 1.48 1.49 1.58 1.73
0.80 0.75 0.69 0.70 0.75 0.77 0.86 0.89 0.98 1.09 1.20 1.31 1.51 1.66 1.68 1.67 1.70 1.75 1.73 1.77 1.76 1.76 1.73 1.69 1.72 1.79 1.76 1.71 1.76 1.72 1.66 1.66 1.59 1.56 1.59 1.48 1.38 1.49 1.53 1.60 1.63 1.57 1.61
0.73 0.73 0.66 0.67 0.74 0.83 0.90 0.97 1.01 1.00 1.10 1.21 1.33 1.49 1.62 1.66 1.68 1.65 1.68 1.74 1.76 1.74 1.67 1.63 1.64 1.69 1.71 1.69 1.71 1.69 1.64 1.63 1.60 1.55 1.58 1.56 1.48 1.49 1.52 1.63 1.62 1.54 1.48
0.70 0.74 0.74 0.71 0.75 0.83 0.91 0.98 1.04 0.98 1.00 1.17 1.29 1.43 1.54 1.56 1.57 1.51 1.58 1.75 1.84 1.82 1.68 1.63 1.63 1.66 1.72 1.69 1.63 1.70 1.69 1.61 1.53 1.50 1.55 1.58 1.58 1.50 1.45 1.54 1.58 1.51 1.47
0.63 0.72 0.82 0.79 0.75 0.79 0.84 0.87 0.98 1.01 1.00 1.06 1.22 1.35 1.48 1.46 1.42 1.41 1.42 1.56 1.73 1.82 1.74 1.62 1.58 1.64 1.76 1.77 1.74 1.80 1.76 1.64 1.52 1.41 1.42 1.50 1.64 1.65 1.63 1.64 1.60 1.62 1.71
0.57 0.72 0.82 0.82 0.83 0.86 0.88 0.85 0.88 0.99 1.05 1.02 1.11 1.19 1.32 1.41 1.38 1.34 1.37 1.47 1.59 1.63 1.66 1.68 1.61 1.63 1.86 2.08 2.20 2.07 1.80 1.61 1.53 1.35 1.28 1.37 1.64 1.86 2.03 2.07 1.90 1.91 2.08
0.52 0.59 0.68 0.75 0.86 0.94 0.96 0.94 0.91 0.95 1.03 1.01 1.06 1.11 1.25 1.38 1.39 1.32 1.36 1.49 1.60 1.59 1.60 1.66 1.64 1.60 1.79 2.23 2.45 2.06 1.67 1.51 1.47 1.41 1.27 1.30 1.58 1.77 1.95 2.10 2.06 2.07 2.25
0.48 0.49 0.60 0.73 0.83 0.93 0.95 0.97 0.95 0.97 1.03 1.03 1.06 1.11 1.24 1.31 1.36 1.35 1.38 1.49 1.60 1.61 1.59 1.59 1.60 1.58 1.64 2.04 2.25 2.00 1.63 1.48 1.39 1.33 1.30 1.33 1.43 1.60 1.62 1.79 1.86 1.84 2.00
0.51 0.50 0.59 0.71 0.76 0.83 0.88 0.92 0.89 1.01 1.07 1.06 1.05 1.11 1.19 1.23 1.33 1.37 1.39 1.51 1.58 1.55 1.54 1.56 1.54 1.52 1.59 1.92 2.16 1.98 1.65 1.54 1.45 1.40 1.31 1.25 1.29 1.44 1.63 1.73 1.73 1.63 1.66
0.54 0.56 0.60 0.69 0.69 0.76 0.82 0.87 0.84 0.93 1.01 1.05 1.01 1.05 1.12 1.17 1.27 1.33 1.40 1.49 1.59 1.54 1.49 1.46 1.52 1.48 1.51 1.85 2.18 2.04 1.68 1.61 1.51 1.47 1.38 1.25 1.20 1.44 1.65 1.61 1.58 1.50 1.52
0.47 0.55 0.58 0.62 0.65 0.70 0.75 0.78 0.84 0.87 0.95 1.01 0.93 0.98 1.06 1.09 1.19 1.26 1.33 1.42 1.45 1.46 1.47 1.42 1.43 1.43 1.42 1.68 2.10 2.19 1.73 1.61 1.51 1.48 1.42 1.48 1.44 1.57 1.59 1.47 1.55 1.67 1.53
0.46 0.50 0.52 0.58 0.65 0.69 0.69 0.73 0.82 0.88 0.92 0.99 0.92 0.97 1.00 1.04 1.13 1.21 1.23 1.32 1.39 1.40 1.46 1.44 1.41 1.39 1.42 1.53 1.83 2.17 1.87 1.69 1.54 1.52 1.49 1.43 1.60 1.62 1.58 1.54 1.50 1.70 1.60
0.46 0.48 0.51 0.56 0.60 0.64 0.68 0.70 0.75 0.82 0.89 0.94 0.94 1.00 1.04 1.05 1.10 1.16 1.16 1.21 1.32 1.38 1.41 1.44 1.47 1.45 1.43 1.50 1.71 1.96 1.92 1.81 1.60 1.51 1.40 1.36 1.55 1.59 1.62 1.57 1.62 1.68 1.65
0.50 0.51 0.55 0.55 0.58 0.63 0.68 0.74 0.77 0.80 0.89 0.93 0.93 0.99 1.08 1.11 1.12 1.13 1.13 1.18 1.25 1.33 1.37 1.38 1.38 1.40 1.37 1.47 1.75 1.72 1.75 1.77 1.68 1.66 1.68 1.61 1.67 1.68 1.57 1.54 1.59 1.53 1.44
0.54 0.56 0.59 0.59 0.61 0.64 0.70 0.78 0.82 0.80 0.86 0.91 0.92 0.97 1.03 1.09 1.13 1.10 1.04 1.05 1.15 1.28 1.30 1.31 1.27 1.22 1.26 1.46 1.67 1.59 1.54 1.64 1.73 1.79 1.77 1.74 1.76 1.71 1.63 1.56 1.43 1.32 1.33
0.58 0.59 0.62 0.65 0.68 0.67 0.73 0.79 0.82 0.81 0.86 0.85 0.84 0.90 0.93 1.02 1.12 1.11 1.06 1.04 1.05 1.24 1.39 1.34 1.29 1.32 1.42 1.60 1.77 1.71 1.65 1.68 1.75 1.84 1.89 1.81 1.76 1.74 1.60 1.41 1.26 1.22 1.29
0.60 0.62 0.63 0.67 0.73 0.73 0.75 0.79 0.82 0.80 0.80 0.82 0.80 0.83 0.86 0.92 1.00 1.04 1.09 1.21 1.19 1.22 1.24 1.25 1.32 1.30 1.46 1.56 1.59 1.63 1.69 1.80 1.87 1.93 1.89 1.70 1.50 1.43 1.36 1.28 1.21 1.17 1.18